Location: Kumla
(59.1265°N, 15.1401°E)
Time: 07:38:43
(UTC+01:00)

A-11 Canister half - Pass Details

Date: 05 December 2023
Orbit: 1526 x 1682 km, 47.3° (Epoch: 04 March)

Event Time Altitude Azimuth Distance (km) Brightness Sun altitude
Rises 19:07:04 0° 214° (SW) 4,926 12.0 -28.9°
Reaches altitude 10° 19:10:45 10° 205° (SSW) 3,940 11.3 -29.4°
Enters shadow 19:18:15 29° 157° (SSE) 2,700 10.0 -30.3°
